Weather History for McGuire AFB, NJ

Change the Weather History Date:

Saturday, August 9, 2014

  Actual Average Record
Temperature  
Mean Temperature 72 °F -  
Max Temperature 84 °F 83 °F 104 °F (2001)
Min Temperature 60 °F 64 °F 57 °F (2002)
Cooling Degree Days 7    
Growing Degree Days 22 (Base 50)    
Moisture  
Dew Point 58 °F    
Average Humidity 63    
Maximum Humidity 91    
Minimum Humidity 33    
Precipitation  
Precipitation 0.00 in - - ()
Sea Level Pressure  
Sea Level Pressure 30.09 in    
Wind  
Wind Speed 3 mph (SW)    
Max Wind Speed 9 mph    
Max Gust Speed -    
Visibility 10 miles    
Events Rain    
Averages and records for this station are not official NWS values.
T = Trace of Precipitation, MM = Missing Value Source: NWS Daily Summary

Daily Weather History Graph

Daily Weather History Graph

Search for Another Location

Airport:

Trip Planner

Search our weather history database for the weather conditions in past years. The results will help you decide how hot, cold, wet, or windy it might be!

Date:

Astronomy

Aug. 09, 2014 Rise Set
Actual Time 6:04 AM EDT 8:02 PM EDT
Civil Twilight 5:34 AM EDT 8:32 PM EDT
Nautical Twilight 4:58 AM EDT 9:08 PM EDT
Astronomical Twilight 4:19 AM EDT 9:47 PM EDT
Moon 7:02 PM EDT (8/9) 4:41 AM EDT (8/9)
Length of Visible Light 14h 57m
Length of Day
13h 58m
Waxing Gibbous, 98% of the Moon is Illuminated
Aug 9
Waxing Gibbous
Aug 10
Full
Aug 17
Last Quarter
Aug 25
New
Sep 2
First Quarter

Hourly Weather History & Observations

Time (EDT) Temp. Heat Index Dew Point Humidity Pressure Visibility Wind Dir Wind Speed Gust Speed Precip Events Conditions
12:58 AM 63.0 °F - 58.5 °F 85% 30.08 in 10.0 mi WSW 2.3 mph - N/A   Clear
2:58 AM 62.4 °F - 57.6 °F 84% 30.07 in 10.0 mi Calm Calm - N/A   Clear
3:58 AM 61.2 °F - 57.0 °F 86% 30.08 in 10.0 mi NNW 2.3 mph - N/A   Clear
4:58 AM 61.2 °F - 58.1 °F 90% 30.08 in 10.0 mi Calm Calm - N/A   Clear
5:58 AM 60.3 °F - 57.2 °F 90% 30.10 in 10.0 mi Calm Calm - N/A   Clear
6:58 AM 61.3 °F - 58.6 °F 91% 30.11 in 10.0 mi Calm Calm - 0.00 in Rain Light Rain
6:59 AM 62.6 °F - 59.0 °F 88% 30.10 in 10.0 mi Calm Calm - N/A   Clear
7:58 AM 67.5 °F - 59.7 °F 76% 30.12 in 10.0 mi North 2.3 mph - 0.00 in   Clear
8:58 AM 71.8 °F - 59.7 °F 66% 30.12 in 10.0 mi Variable 3.5 mph - N/A   Clear
9:58 AM 75.2 °F - 61.0 °F 61% 30.11 in 10.0 mi Variable 5.8 mph - N/A   Clear
10:58 AM 78.1 °F - 58.5 °F 51% 30.11 in 10.0 mi Variable 2.3 mph - N/A   Clear
11:58 AM 79.9 °F - 58.6 °F 48% 30.11 in 10.0 mi NNW 6.9 mph - N/A   Clear
12:58 PM 81.1 °F 81.2 °F 57.0 °F 44% 30.10 in 10.0 mi Variable 3.5 mph - N/A   Clear
1:58 PM 79.5 °F - 55.2 °F 43% 30.10 in 10.0 mi Variable 5.8 mph - N/A   Partly Cloudy
2:11 PM 82.4 °F 81.4 °F 53.6 °F 37% 30.09 in 10.0 mi NW 4.6 mph - N/A Rain Light Rain
2:22 PM 80.6 °F 80.3 °F 53.6 °F 39% 30.08 in 10.0 mi Variable 4.6 mph - N/A   Partly Cloudy
2:58 PM 80.8 °F 80.5 °F 54.3 °F 40% 30.08 in 10.0 mi Variable 5.8 mph - 0.00 in   Clear
3:58 PM 84.6 °F - 52.2 °F 33% 30.07 in 10.0 mi NNE 3.5 mph - N/A   Clear
4:58 PM 84.0 °F - 52.2 °F 33% 30.06 in 10.0 mi Variable 2.3 mph - N/A   Partly Cloudy
5:58 PM 82.9 °F - 51.4 °F 33% 30.06 in 10.0 mi SE 9.2 mph - N/A   Clear
6:58 PM 78.4 °F - 61.7 °F 56% 30.06 in 10.0 mi South 5.8 mph - N/A   Clear
7:58 PM 74.7 °F - 61.5 °F 63% 30.07 in 10.0 mi SSE 4.6 mph - N/A   Clear
8:58 PM 70.9 °F - 60.4 °F 69% 30.09 in 10.0 mi South 3.5 mph - N/A   Clear
9:58 PM 68.4 °F - 60.1 °F 75% 30.10 in 10.0 mi SSW 3.5 mph - N/A   Clear
10:58 PM 67.3 °F - 60.1 °F 78% 30.11 in 10.0 mi SSW 5.8 mph - N/A   Clear
11:58 PM 66.4 °F - 59.0 °F 77% 30.11 in 10.0 mi Calm Calm - N/A   Clear